Time,TemperatureF,DewpointF,PressureIn,WindDirection,WindDirectionDegrees,WindSpeedMPH,WindSpeedGustMPH,Humidity,HourlyPrecipIn,Conditions,Clouds,dailyrainin,SoftwareType,DateUTC
2013-11-23 00:01:00,46.2,43.3,29.82,WNW,300,0.0,0.0,97,0.00,,,0.00,meteohub,2013-11-23 05:01:00,
2013-11-23 00:02:00,46.2,43.3,29.82,WNW,300,0.0,0.0,97,0.00,,,0.00,meteohub,2013-11-23 05:02:00,
2013-11-23 00:03:00,46.2,43.3,29.82,WNW,300,0.0,0.0,97,0.00,,,0.00,meteohub,2013-11-23 05:03:00,
2013-11-23 00:08:00,46.2,43.2,29.82,WNW,300,0.0,1.0,97,0.00,,,0.00,meteohub,2013-11-23 05:08:00,
2013-11-23 00:13:00,46.4,43.2,29.82,WNW,299,0.0,1.0,97,0.00,,,0.00,meteohub,2013-11-23 05:13:00,
2013-11-23 00:18:00,46.6,43.2,29.82,WNW,299,5.0,5.0,97,0.00,,,0.00,meteohub,2013-11-23 05:18:00,
2013-11-23 00:23:00,46.8,43.2,29.81,WNW,292,0.0,5.0,97,0.00,,,0.00,meteohub,2013-11-23 05:23:00,
2013-11-23 00:28:00,46.9,43.0,29.81,WNW,288,4.0,5.0,97,0.00,,,0.00,meteohub,2013-11-23 05:28:00,
2013-11-23 00:33:00,46.9,43.0,29.81,NNW,330,2.0,5.0,97,0.00,,,0.00,meteohub,2013-11-23 05:33:00,
2013-11-23 00:38:00,47.1,43.0,29.81,NW,326,1.0,8.0,97,0.00,,,0.00,meteohub,2013-11-23 05:38:00,
2013-11-23 00:43:00,47.3,43.0,29.81,NW,310,4.0,8.0,97,0.00,,,0.00,meteohub,2013-11-23 05:43:00,
2013-11-23 00:48:00,47.5,42.8,29.82,WNW,303,5.0,8.0,97,0.00,,,0.00,meteohub,2013-11-23 05:48:00,
2013-11-23 00:53:00,47.5,42.8,29.81,NW,311,3.0,8.0,97,0.00,,,0.00,meteohub,2013-11-23 05:53:00,
2013-11-23 00:58:00,47.5,42.8,29.81,South,189,2.0,7.0,97,0.00,,,0.00,meteohub,2013-11-23 05:58:00,
2013-11-23 01:03:00,47.5,42.8,29.81,NNW,338,0.0,11.0,97,0.00,,,0.00,meteohub,2013-11-23 06:03:00,
2013-11-23 01:08:00,47.3,42.6,29.81,NW,320,4.0,11.0,97,0.00,,,0.00,meteohub,2013-11-23 06:08:00,
2013-11-23 01:13:00,47.1,42.6,29.81,NW,326,2.0,10.0,96,0.00,,,0.00,meteohub,2013-11-23 06:13:00,
2013-11-23 01:18:00,47.1,42.6,29.81,NW,322,0.0,10.0,96,0.00,,,0.00,meteohub,2013-11-23 06:18:00,
2013-11-23 01:23:00,47.1,42.6,29.81,NNW,330,2.0,10.0,95,0.00,,,0.00,meteohub,2013-11-23 06:23:00,
2013-11-23 01:28:00,46.9,42.4,29.82,NW,308,4.0,10.0,94,0.00,,,0.00,meteohub,2013-11-23 06:28:00,
2013-11-23 01:33:00,46.9,42.4,29.81,NNW,331,2.0,6.0,94,0.00,,,0.00,meteohub,2013-11-23 06:33:00,
2013-11-23 01:38:00,46.9,42.4,29.81,NW,321,2.0,7.0,92,0.00,,,0.00,meteohub,2013-11-23 06:38:00,
2013-11-23 01:43:00,47.1,42.4,29.81,NW,306,2.0,7.0,91,0.00,,,0.00,meteohub,2013-11-23 06:43:00,
2013-11-23 01:48:00,47.1,42.3,29.81,NW,310,0.0,7.0,89,0.00,,,0.00,meteohub,2013-11-23 06:48:00,
2013-11-23 01:53:00,47.1,42.3,29.82,NW,304,0.0,8.0,89,0.00,,,0.00,meteohub,2013-11-23 06:53:00,
2013-11-23 01:58:00,46.9,42.3,29.83,NW,322,4.0,8.0,87,0.00,,,0.00,meteohub,2013-11-23 06:58:00,
2013-11-23 02:03:00,46.9,42.3,29.82,WNW,302,1.0,8.0,86,0.00,,,0.00,meteohub,2013-11-23 07:03:00,
2013-11-23 02:08:00,46.9,42.3,29.82,NW,306,4.0,7.0,85,0.00,,,0.00,meteohub,2013-11-23 07:08:00,
2013-11-23 02:13:00,46.9,42.3,29.81,North,355,1.0,8.0,83,0.00,,,0.00,meteohub,2013-11-23 07:13:00,
2013-11-23 02:18:00,46.9,42.3,29.81,NNW,331,0.0,8.0,82,0.00,,,0.00,meteohub,2013-11-23 07:18:00,
2013-11-23 02:23:00,46.8,42.3,29.81,WNW,290,6.0,8.0,81,0.00,,,0.00,meteohub,2013-11-23 07:23:00,
2013-11-23 02:28:00,46.8,42.1,29.81,NW,315,3.0,8.0,79,0.00,,,0.00,meteohub,2013-11-23 07:28:00,
2013-11-23 02:33:00,46.8,42.1,29.81,NW,307,10.0,10.0,79,0.00,,,0.00,meteohub,2013-11-23 07:33:00,
2013-11-23 02:38:00,46.8,42.1,29.81,NNW,329,0.0,10.0,78,0.00,,,0.00,meteohub,2013-11-23 07:38:00,
2013-11-23 02:43:00,46.6,42.1,29.81,NW,322,0.0,10.0,78,0.00,,,0.00,meteohub,2013-11-23 07:43:00,
2013-11-23 02:48:00,46.2,41.9,29.81,NW,311,0.0,10.0,78,0.00,,,0.00,meteohub,2013-11-23 07:48:00,
2013-11-23 02:53:00,46.0,41.9,29.82,NW,317,0.0,7.0,78,0.00,,,0.00,meteohub,2013-11-23 07:53:00,
2013-11-23 02:58:00,46.0,41.9,29.82,NW,310,0.0,7.0,78,0.00,,,0.00,meteohub,2013-11-23 07:58:00,
2013-11-23 03:03:00,45.9,41.9,29.82,NW,317,1.0,7.0,77,0.00,,,0.00,meteohub,2013-11-23 08:03:00,
2013-11-23 03:08:00,45.9,41.7,29.82,NNW,331,2.0,7.0,76,0.00,,,0.00,meteohub,2013-11-23 08:08:00,
2013-11-23 03:13:00,45.7,41.7,29.82,NW,319,4.0,6.0,75,0.00,,,0.00,meteohub,2013-11-23 08:13:00,
2013-11-23 03:18:00,45.7,41.7,29.82,NW,322,2.0,7.0,76,0.00,,,0.00,meteohub,2013-11-23 08:18:00,
2013-11-23 03:23:00,45.5,41.9,29.81,West,279,0.0,7.0,74,0.00,,,0.00,meteohub,2013-11-23 08:23:00,
2013-11-23 03:28:00,45.3,41.9,29.82,NW,322,1.0,9.0,74,0.00,,,0.00,meteohub,2013-11-23 08:28:00,
2013-11-23 03:33:00,45.3,42.1,29.82,NNW,331,4.0,9.0,74,0.00,,,0.00,meteohub,2013-11-23 08:33:00,
2013-11-23 03:38:00,45.1,42.1,29.83,NW,317,0.0,6.0,73,0.00,,,0.00,meteohub,2013-11-23 08:38:00,
2013-11-23 03:43:00,45.1,41.9,29.83,NW,318,2.0,9.0,74,0.00,,,0.00,meteohub,2013-11-23 08:43:00,
2013-11-23 03:48:00,45.0,41.9,29.83,SSE,147,2.0,9.0,73,0.00,,,0.00,meteohub,2013-11-23 08:48:00,
2013-11-23 03:53:00,44.8,41.9,29.84,WNW,289,7.0,8.0,73,0.00,,,0.00,meteohub,2013-11-23 08:53:00,
2013-11-23 03:58:00,44.8,41.9,29.83,NW,315,1.0,8.0,72,0.00,,,0.00,meteohub,2013-11-23 08:58:00,
2013-11-23 04:03:00,44.6,41.7,29.84,NW,306,0.0,8.0,73,0.00,,,0.00,meteohub,2013-11-23 09:03:00,
2013-11-23 04:08:00,44.2,41.7,29.84,NW,306,0.0,8.0,72,0.00,,,0.00,meteohub,2013-11-23 09:08:00,
2013-11-23 04:13:00,44.1,41.7,29.84,NNW,339,0.0,8.0,72,0.00,,,0.00,meteohub,2013-11-23 09:13:00,
2013-11-23 04:18:00,43.7,41.5,29.83,NW,306,2.0,5.0,73,0.00,,,0.00,meteohub,2013-11-23 09:18:00,
2013-11-23 04:23:00,43.5,41.7,29.84,NW,324,1.0,6.0,73,0.00,,,0.00,meteohub,2013-11-23 09:23:00,
2013-11-23 04:28:00,43.3,41.9,29.84,West,279,3.0,7.0,72,0.00,,,0.00,meteohub,2013-11-23 09:28:00,
2013-11-23 04:33:00,43.2,41.9,29.84,WNW,303,0.0,7.0,72,0.00,,,0.00,meteohub,2013-11-23 09:33:00,
2013-11-23 04:38:00,43.2,41.9,29.85,NW,313,2.0,6.0,72,0.00,,,0.00,meteohub,2013-11-23 09:38:00,
2013-11-23 04:43:00,43.0,41.9,29.84,NW,323,3.0,6.0,71,0.00,,,0.00,meteohub,2013-11-23 09:43:00,
2013-11-23 04:48:00,42.6,41.7,29.85,WNW,298,2.0,6.0,72,0.00,,,0.00,meteohub,2013-11-23 09:48:00,
2013-11-23 04:54:00,42.6,41.7,29.85,NW,313,3.0,7.0,72,0.00,,,0.00,meteohub,2013-11-23 09:54:00,
2013-11-23 04:59:00,42.4,41.7,29.85,WNW,283,1.0,7.0,72,0.00,,,0.00,meteohub,2013-11-23 09:59:00,
2013-11-23 05:04:00,42.4,41.5,29.85,WNW,294,4.0,7.0,72,0.00,,,0.00,meteohub,2013-11-23 10:04:00,
2013-11-23 05:09:00,42.3,41.5,29.86,NW,324,1.0,7.0,71,0.00,,,0.00,meteohub,2013-11-23 10:09:00,
2013-11-23 05:14:00,42.3,41.5,29.86,West,267,6.0,7.0,71,0.00,,,0.00,meteohub,2013-11-23 10:14:00,
2013-11-23 05:19:00,42.1,41.5,29.86,WNW,303,1.0,7.0,72,0.00,,,0.00,meteohub,2013-11-23 10:19:00,
2013-11-23 05:24:00,41.7,41.5,29.86,WNW,300,0.0,7.0,71,0.00,,,0.00,meteohub,2013-11-23 10:24:00,
2013-11-23 05:29:00,41.7,41.5,29.86,NNE,24,0.0,7.0,72,0.00,,,0.00,meteohub,2013-11-23 10:29:00,
2013-11-23 05:34:00,41.5,41.7,29.86,WNW,298,1.0,8.0,72,0.00,,,0.00,meteohub,2013-11-23 10:34:00,
2013-11-23 05:39:00,41.4,41.7,29.86,NW,309,1.0,8.0,72,0.00,,,0.00,meteohub,2013-11-23 10:39:00,
2013-11-23 05:44:00,41.4,41.7,29.86,WNW,298,4.0,8.0,72,0.00,,,0.00,meteohub,2013-11-23 10:44:00,
2013-11-23 05:49:00,41.2,41.7,29.87,NW,317,5.0,6.0,72,0.00,,,0.00,meteohub,2013-11-23 10:49:00,
2013-11-23 05:54:00,41.4,41.5,29.87,WNW,303,1.0,8.0,71,0.00,,,0.00,meteohub,2013-11-23 10:54:00,
2013-11-23 05:59:00,41.4,41.5,29.87,NNW,345,4.0,9.0,71,0.00,,,0.00,meteohub,2013-11-23 10:59:00,
2013-11-23 06:04:00,41.4,41.5,29.88,NW,322,4.0,9.0,71,0.00,,,0.00,meteohub,2013-11-23 11:04:00,
2013-11-23 06:09:00,41.2,41.4,29.88,WNW,290,2.0,9.0,71,0.00,,,0.00,meteohub,2013-11-23 11:09:00,
2013-11-23 06:14:00,40.8,40.5,29.88,NW,318,1.0,9.0,72,0.00,,,0.00,meteohub,2013-11-23 11:14:00,
2013-11-23 06:19:00,40.8,40.5,29.88,WNW,292,8.0,8.0,72,0.00,,,0.00,meteohub,2013-11-23 11:19:00,
2013-11-23 06:24:00,40.8,41.4,29.88,NW,319,1.0,7.0,71,0.00,,,0.00,meteohub,2013-11-23 11:24:00,
2013-11-23 06:29:00,40.6,41.4,29.88,NW,313,1.0,11.0,71,0.00,,,0.00,meteohub,2013-11-23 11:29:00,
2013-11-23 06:34:00,40.5,41.5,29.88,NNW,342,2.0,11.0,72,0.00,,,0.00,meteohub,2013-11-23 11:34:00,
2013-11-23 06:39:00,40.3,41.5,29.88,NNW,338,1.0,7.0,72,0.00,,,0.00,meteohub,2013-11-23 11:39:00,
2013-11-23 06:44:00,40.1,41.5,29.89,NW,313,3.0,7.0,72,0.00,,,0.00,meteohub,2013-11-23 11:44:00,
2013-11-23 06:49:00,40.1,41.5,29.89,NW,306,0.0,7.0,72,0.00,,,0.00,meteohub,2013-11-23 11:49:00,
2013-11-23 06:54:00,39.7,41.5,29.89,NNW,331,0.0,7.0,73,0.00,,,0.00,meteohub,2013-11-23 11:54:00,
2013-11-23 06:59:00,39.6,41.5,29.89,NNW,332,0.0,6.0,73,0.00,,,0.00,meteohub,2013-11-23 11:59:00,
2013-11-23 07:04:00,39.4,41.4,29.90,WNW,291,1.0,5.0,74,0.00,,,0.00,meteohub,2013-11-23 12:04:00,
2013-11-23 07:09:00,39.4,41.4,29.90,NW,316,2.0,3.0,74,0.00,,,0.00,meteohub,2013-11-23 12:09:00,
2013-11-23 07:14:00,39.4,41.4,29.90,NW,315,3.0,7.0,74,0.00,,,0.00,meteohub,2013-11-23 12:14:00,
2013-11-23 07:19:00,39.0,41.4,29.91,WNW,291,2.0,7.0,74,0.00,,,0.00,meteohub,2013-11-23 12:19:00,
2013-11-23 07:24:00,39.0,41.4,29.91,NW,306,0.0,6.0,74,0.00,,,0.00,meteohub,2013-11-23 12:24:00,
2013-11-23 07:29:00,39.0,41.5,29.91,NW,309,1.0,6.0,74,0.00,,,0.00,meteohub,2013-11-23 12:29:00,
2013-11-23 07:34:00,39.0,41.7,29.91,NW,324,2.0,4.0,74,0.00,,,0.00,meteohub,2013-11-23 12:34:00,
2013-11-23 07:39:00,39.2,41.7,29.91,NNW,331,4.0,6.0,73,0.00,,,0.00,meteohub,2013-11-23 12:39:00,
2013-11-23 07:44:00,39.2,41.7,29.91,NNW,332,1.0,9.0,73,0.00,,,0.00,meteohub,2013-11-23 12:44:00,
2013-11-23 07:49:00,39.2,41.7,29.92,NNW,338,3.0,9.0,74,0.00,,,0.00,meteohub,2013-11-23 12:49:00,
2013-11-23 07:54:00,39.4,41.5,29.92,NNW,340,0.0,6.0,74,0.00,,,0.00,meteohub,2013-11-23 12:54:00,
2013-11-23 07:59:00,39.4,41.5,29.93,NW,319,3.0,6.0,74,0.00,,,0.00,meteohub,2013-11-23 12:59:00,
2013-11-23 08:04:00,39.4,41.5,29.93,NNW,334,6.0,6.0,73,0.00,,,0.00,meteohub,2013-11-23 13:04:00,
2013-11-23 08:09:00,39.6,41.5,29.93,NNW,333,4.0,6.0,73,0.00,,,0.00,meteohub,2013-11-23 13:09:00,
2013-11-23 08:14:00,39.7,41.5,29.93,WNW,288,4.0,6.0,73,0.00,,,0.00,meteohub,2013-11-23 13:14:00,
2013-11-23 08:19:00,39.7,41.5,29.93,WNW,299,3.0,6.0,72,0.00,,,0.00,meteohub,2013-11-23 13:19:00,
2013-11-23 08:24:00,39.7,41.7,29.93,NW,314,6.0,9.0,72,0.00,,,0.00,meteohub,2013-11-23 13:24:00,
2013-11-23 08:29:00,39.9,41.7,29.93,NNW,342,0.0,9.0,72,0.00,,,0.00,meteohub,2013-11-23 13:29:00,
2013-11-23 08:34:00,39.9,41.7,29.94,NW,318,0.0,9.0,72,0.00,,,0.00,meteohub,2013-11-23 13:34:00,
2013-11-23 08:39:00,40.1,41.7,29.94,NW,317,2.0,9.0,71,0.00,,,0.00,meteohub,2013-11-23 13:39:00,
2013-11-23 08:44:00,40.3,41.7,29.94,NW,309,5.0,9.0,71,0.00,,,0.00,meteohub,2013-11-23 13:44:00,
2013-11-23 08:49:00,40.5,41.7,29.94,NW,323,5.0,6.0,69,0.00,,,0.00,meteohub,2013-11-23 13:49:00,
2013-11-23 08:54:00,40.5,41.7,29.93,NNW,328,4.0,6.0,68,0.00,,,0.00,meteohub,2013-11-23 13:54:00,
2013-11-23 08:59:00,40.6,41.7,29.93,WNW,292,7.0,9.0,68,0.00,,,0.00,meteohub,2013-11-23 13:59:00,
2013-11-23 09:04:00,40.6,41.7,29.93,WNW,296,2.0,9.0,67,0.00,,,0.00,meteohub,2013-11-23 14:04:00,
2013-11-23 09:09:00,40.6,41.7,29.93,NNW,348,4.0,9.0,66,0.00,,,0.00,meteohub,2013-11-23 14:09:00,
2013-11-23 09:14:00,40.6,41.7,29.94,West,260,2.0,7.0,66,0.00,,,0.00,meteohub,2013-11-23 14:14:00,
2013-11-23 09:20:00,40.6,41.7,29.94,NNW,329,5.0,10.0,65,0.00,,,0.00,meteohub,2013-11-23 14:20:00,
2013-11-23 09:25:00,40.6,40.8,29.94,NNW,331,3.0,10.0,65,0.00,,,0.00,meteohub,2013-11-23 14:25:00,
2013-11-23 09:30:00,40.6,40.8,29.93,NNW,344,5.0,10.0,65,0.00,,,0.00,meteohub,2013-11-23 14:30:00,
2013-11-23 09:34:00,40.6,40.8,29.93,NW,315,5.0,9.0,66,0.00,,,0.00,meteohub,2013-11-23 14:34:00,
2013-11-23 09:40:00,40.8,40.8,29.93,West,259,0.0,9.0,64,0.00,,,0.00,meteohub,2013-11-23 14:40:00,
2013-11-23 09:45:00,40.6,40.8,29.93,NNW,343,3.0,11.0,64,0.00,,,0.00,meteohub,2013-11-23 14:45:00,
2013-11-23 09:50:00,40.8,40.8,29.93,NNW,334,5.0,11.0,64,0.00,,,0.00,meteohub,2013-11-23 14:50:00,
2013-11-23 09:55:00,41.2,40.8,29.93,West,273,0.0,11.0,64,0.00,,,0.00,meteohub,2013-11-23 14:55:00,
2013-11-23 10:00:00,41.4,40.8,29.93,WNW,294,5.0,9.0,63,0.00,,,0.00,meteohub,2013-11-23 15:00:00,
2013-11-23 10:05:00,41.5,40.8,29.93,NNW,344,4.0,8.0,63,0.00,,,0.00,meteohub,2013-11-23 15:05:00,
2013-11-23 10:10:00,41.7,40.8,29.93,NW,315,7.0,7.0,61,0.00,,,0.00,meteohub,2013-11-23 15:10:00,
2013-11-23 10:15:00,41.7,41.0,29.92,NNW,346,3.0,7.0,61,0.00,,,0.00,meteohub,2013-11-23 15:15:00,
2013-11-23 10:20:00,41.9,41.0,29.93,NW,322,2.0,8.0,60,0.00,,,0.00,meteohub,2013-11-23 15:20:00,
2013-11-23 10:25:00,42.1,41.0,29.93,NNW,341,0.0,8.0,58,0.00,,,0.00,meteohub,2013-11-23 15:25:00,
2013-11-23 10:30:00,41.9,41.0,29.93,NNW,338,0.0,8.0,58,0.00,,,0.00,meteohub,2013-11-23 15:30:00,
2013-11-23 10:35:00,42.1,41.0,29.92,NNW,332,1.0,8.0,58,0.00,,,0.00,meteohub,2013-11-23 15:35:00,
2013-11-23 10:40:00,41.9,41.2,29.92,NNW,340,3.0,8.0,54,0.00,,,0.00,meteohub,2013-11-23 15:40:00,
2013-11-23 10:45:00,41.9,41.2,29.92,West,265,9.0,14.0,54,0.00,,,0.00,meteohub,2013-11-23 15:45:00,
2013-11-23 10:50:00,41.9,41.2,29.91,NW,318,1.0,14.0,53,0.00,,,0.00,meteohub,2013-11-23 15:50:00,
2013-11-23 10:55:00,42.1,41.2,29.91,NW,312,4.0,14.0,55,0.00,,,0.00,meteohub,2013-11-23 15:55:00,
2013-11-23 11:00:00,42.1,41.2,29.91,WNW,286,5.0,10.0,51,0.00,,,0.00,meteohub,2013-11-23 16:00:00,
2013-11-23 11:05:00,42.1,41.4,29.91,North,355,7.0,14.0,51,0.00,,,0.00,meteohub,2013-11-23 16:05:00,
2013-11-23 11:10:00,42.3,41.4,29.90,WNW,298,10.0,14.0,51,0.00,,,0.00,meteohub,2013-11-23 16:10:00,
2013-11-23 11:15:00,42.4,41.4,29.89,NNW,337,4.0,14.0,51,0.00,,,0.00,meteohub,2013-11-23 16:15:00,
2013-11-23 11:20:00,42.6,41.4,29.89,NW,311,8.0,10.0,51,0.00,,,0.00,meteohub,2013-11-23 16:20:00,
2013-11-23 11:25:00,42.8,41.5,29.88,North,355,2.0,10.0,51,0.00,,,0.00,meteohub,2013-11-23 16:25:00,
2013-11-23 11:30:00,43.2,41.5,29.89,NNW,331,4.0,9.0,53,0.00,,,0.00,meteohub,2013-11-23 16:30:00,
2013-11-23 11:35:00,43.3,41.5,29.89,NNW,347,3.0,9.0,53,0.00,,,0.00,meteohub,2013-11-23 16:35:00,
2013-11-23 11:40:00,43.3,41.5,29.89,NNW,335,0.0,8.0,52,0.00,,,0.00,meteohub,2013-11-23 16:40:00,
2013-11-23 11:45:00,43.3,41.5,29.88,WNW,283,2.0,13.0,51,0.00,,,0.00,meteohub,2013-11-23 16:45:00,
2013-11-23 11:50:00,43.0,41.7,29.89,NNW,333,1.0,13.0,49,0.00,,,0.00,meteohub,2013-11-23 16:50:00,
2013-11-23 11:55:00,42.8,41.7,29.88,NW,325,2.0,9.0,51,0.00,,,0.00,meteohub,2013-11-23 16:55:00,
2013-11-23 12:00:00,42.6,41.7,29.88,NNW,341,4.0,9.0,50,0.00,,,0.00,meteohub,2013-11-23 17:00:00,
2013-11-23 12:05:00,42.4,41.7,29.88,WNW,298,2.0,6.0,50,0.00,,,0.00,meteohub,2013-11-23 17:05:00,
2013-11-23 12:10:00,42.4,41.7,29.87,NW,310,1.0,6.0,49,0.00,,,0.00,meteohub,2013-11-23 17:10:00,
2013-11-23 12:16:00,43.0,41.7,29.87,SW,230,5.0,7.0,49,0.00,,,0.00,meteohub,2013-11-23 17:16:00,
2013-11-23 12:21:00,43.2,41.7,29.86,NNW,330,2.0,10.0,48,0.00,,,0.00,meteohub,2013-11-23 17:21:00,
2013-11-23 12:26:00,43.2,41.7,29.86,NW,316,0.0,10.0,48,0.00,,,0.00,meteohub,2013-11-23 17:26:00,
2013-11-23 12:31:00,43.2,41.7,29.86,NW,326,0.0,10.0,46,0.00,,,0.00,meteohub,2013-11-23 17:31:00,
2013-11-23 12:36:00,43.2,41.7,29.86,NW,321,1.0,8.0,48,0.00,,,0.00,meteohub,2013-11-23 17:36:00,
2013-11-23 12:41:00,43.2,41.7,29.86,NW,323,5.0,7.0,48,0.00,,,0.00,meteohub,2013-11-23 17:41:00,
2013-11-23 12:46:00,43.2,41.7,29.86,NW,326,6.0,9.0,48,0.00,,,0.00,meteohub,2013-11-23 17:46:00,
2013-11-23 12:51:00,43.2,41.7,29.85,NNW,335,6.0,9.0,49,0.00,,,0.00,meteohub,2013-11-23 17:51:00,
2013-11-23 12:56:00,43.2,41.7,29.86,NNW,346,4.0,8.0,49,0.00,,,0.00,meteohub,2013-11-23 17:56:00,
2013-11-23 13:01:00,43.0,41.7,29.86,NW,314,2.0,8.0,49,0.00,,,0.00,meteohub,2013-11-23 18:01:00,
2013-11-23 13:06:00,43.2,41.7,29.85,NW,315,1.0,9.0,49,0.00,,,0.00,meteohub,2013-11-23 18:06:00,
2013-11-23 13:11:00,43.3,41.7,29.86,WNW,302,6.0,9.0,47,0.00,,,0.00,meteohub,2013-11-23 18:11:00,
2013-11-23 13:16:00,43.3,41.7,29.86,NNW,333,5.0,10.0,47,0.00,,,0.00,meteohub,2013-11-23 18:16:00,
2013-11-23 13:21:00,43.3,40.8,29.86,ESE,114,1.0,11.0,45,0.00,,,0.00,meteohub,2013-11-23 18:21:00,
2013-11-23 13:26:00,43.3,40.8,29.85,NW,308,3.0,11.0,45,0.00,,,0.00,meteohub,2013-11-23 18:26:00,
2013-11-23 13:31:00,43.3,41.7,29.86,NNW,343,5.0,13.0,44,0.00,,,0.00,meteohub,2013-11-23 18:31:00,
2013-11-23 13:36:00,43.3,41.7,29.86,NNW,337,5.0,13.0,43,0.00,,,0.00,meteohub,2013-11-23 18:36:00,
2013-11-23 13:41:00,43.3,43.0,29.86,NNE,13,6.0,13.0,44,0.00,,,0.00,meteohub,2013-11-23 18:41:00,
2013-11-23 13:46:00,43.0,43.3,29.85,NW,313,4.0,10.0,43,0.00,,,0.00,meteohub,2013-11-23 18:46:00,
2013-11-23 13:51:00,42.8,42.6,29.85,NNW,343,4.0,10.0,44,0.00,,,0.00,meteohub,2013-11-23 18:51:00,
2013-11-23 13:56:00,43.0,42.6,29.85,NNE,14,2.0,10.0,46,0.00,,,0.00,meteohub,2013-11-23 18:56:00,
2013-11-23 14:01:00,43.2,42.6,29.86,NNW,348,1.0,9.0,47,0.00,,,0.00,meteohub,2013-11-23 19:01:00,
2013-11-23 14:06:00,43.0,42.8,29.85,SE,127,0.0,9.0,46,0.00,,,0.00,meteohub,2013-11-23 19:06:00,
2013-11-23 14:11:00,42.6,42.8,29.85,NW,321,0.0,9.0,47,0.00,,,0.00,meteohub,2013-11-23 19:11:00,
2013-11-23 14:16:00,42.4,42.8,29.84,NNW,338,4.0,5.0,48,0.00,,,0.00,meteohub,2013-11-23 19:16:00,
2013-11-23 14:21:00,42.3,42.8,29.85,NNW,340,6.0,8.0,47,0.00,,,0.00,meteohub,2013-11-23 19:21:00,
2013-11-23 14:26:00,42.1,42.8,29.84,NW,318,2.0,8.0,48,0.00,,,0.00,meteohub,2013-11-23 19:26:00,
2013-11-23 14:31:00,42.1,43.0,29.85,WNW,303,1.0,10.0,44,0.00,,,0.00,meteohub,2013-11-23 19:31:00,
2013-11-23 14:36:00,41.5,43.0,29.85,NNW,334,1.0,10.0,44,0.00,,,0.00,meteohub,2013-11-23 19:36:00,
2013-11-23 14:41:00,41.2,43.2,29.85,North,349,0.0,13.0,44,0.00,,,0.00,meteohub,2013-11-23 19:41:00,
2013-11-23 14:46:00,40.8,43.2,29.85,West,271,2.0,13.0,46,0.00,,,0.00,meteohub,2013-11-23 19:46:00,
2013-11-23 14:51:00,40.5,43.2,29.85,NW,321,4.0,11.0,46,0.00,,,0.00,meteohub,2013-11-23 19:51:00,
2013-11-23 14:56:00,40.1,43.0,29.85,NNW,336,6.0,11.0,46,0.00,,,0.00,meteohub,2013-11-23 19:56:00,
2013-11-23 15:01:00,39.7,42.1,29.85,NNW,329,0.0,11.0,48,0.00,,,0.00,meteohub,2013-11-23 20:01:00,
2013-11-23 15:06:00,39.6,42.1,29.85,NNW,337,0.0,7.0,48,0.00,,,0.00,meteohub,2013-11-23 20:06:00,
2013-11-23 15:11:00,39.6,42.1,29.84,NW,307,2.0,11.0,49,0.00,,,0.00,meteohub,2013-11-23 20:11:00,
2013-11-23 15:16:00,39.4,42.1,29.84,North,355,1.0,11.0,49,0.00,,,0.00,meteohub,2013-11-23 20:16:00,
2013-11-23 15:21:00,39.4,43.0,29.85,NW,323,4.0,8.0,50,0.00,,,0.00,meteohub,2013-11-23 20:21:00,
2013-11-23 15:26:00,39.2,43.0,29.85,NW,320,2.0,8.0,50,0.00,,,0.00,meteohub,2013-11-23 20:26:00,
2013-11-23 15:31:00,38.8,43.2,29.85,North,10,1.0,11.0,47,0.00,,,0.00,meteohub,2013-11-23 20:31:00,
2013-11-23 15:36:00,38.7,43.2,29.85,NNW,345,6.0,12.0,48,0.00,,,0.00,meteohub,2013-11-23 20:36:00,
2013-11-23 15:41:00,38.5,43.2,29.85,NNW,338,6.0,12.0,47,0.00,,,0.00,meteohub,2013-11-23 20:41:00,
2013-11-23 15:46:00,38.1,43.2,29.85,WNW,293,2.0,9.0,48,0.00,,,0.00,meteohub,2013-11-23 20:46:00,
2013-11-23 15:51:00,37.9,42.1,29.85,NNW,343,1.0,9.0,49,0.00,,,0.00,meteohub,2013-11-23 20:51:00,
2013-11-23 15:56:00,37.8,42.1,29.85,WNW,295,1.0,9.0,50,0.00,,,0.00,meteohub,2013-11-23 20:56:00,
2013-11-23 16:01:00,37.6,42.1,29.85,WNW,290,0.0,8.0,51,0.00,,,0.00,meteohub,2013-11-23 21:01:00,
2013-11-23 16:06:00,37.2,42.1,29.85,NNW,338,1.0,7.0,50,0.00,,,0.00,meteohub,2013-11-23 21:06:00,
2013-11-23 16:11:00,37.0,43.2,29.85,NW,322,6.0,7.0,52,0.00,,,0.00,meteohub,2013-11-23 21:11:00,
2013-11-23 16:16:00,37.0,42.4,29.84,NW,307,2.0,7.0,52,0.00,,,0.00,meteohub,2013-11-23 21:16:00,
2013-11-23 16:21:00,36.9,43.3,29.84,WNW,291,0.0,7.0,52,0.00,,,0.00,meteohub,2013-11-23 21:21:00,
2013-11-23 16:26:00,36.7,42.4,29.84,WNW,286,2.0,7.0,53,0.00,,,0.00,meteohub,2013-11-23 21:26:00,
2013-11-23 16:31:00,36.5,42.4,29.84,NW,312,2.0,7.0,53,0.00,,,0.00,meteohub,2013-11-23 21:31:00,
2013-11-23 16:36:00,36.3,42.3,29.84,NW,315,2.0,7.0,54,0.00,,,0.00,meteohub,2013-11-23 21:36:00,
2013-11-23 16:41:00,36.1,42.3,29.84,NW,304,3.0,5.0,55,0.00,,,0.00,meteohub,2013-11-23 21:41:00,
2013-11-23 16:46:00,36.0,42.3,29.83,WNW,303,1.0,5.0,55,0.00,,,0.00,meteohub,2013-11-23 21:46:00,
2013-11-23 16:51:00,35.8,42.3,29.83,NW,316,5.0,5.0,56,0.00,,,0.00,meteohub,2013-11-23 21:51:00,
2013-11-23 16:56:00,35.8,42.3,29.83,WNW,286,1.0,6.0,55,0.00,,,0.00,meteohub,2013-11-23 21:56:00,
2013-11-23 17:01:00,35.8,42.4,29.83,NW,309,0.0,6.0,55,0.00,,,0.00,meteohub,2013-11-23 22:01:00,
2013-11-23 17:06:00,35.8,42.4,29.83,NW,309,1.0,6.0,56,0.00,,,0.00,meteohub,2013-11-23 22:06:00,
2013-11-23 17:11:00,35.6,42.4,29.83,NW,309,2.0,6.0,56,0.00,,,0.00,meteohub,2013-11-23 22:11:00,
2013-11-23 17:16:00,35.4,42.4,29.83,NW,309,0.0,4.0,56,0.00,,,0.00,meteohub,2013-11-23 22:16:00,
2013-11-23 17:22:00,35.2,42.4,29.83,WNW,296,1.0,4.0,57,0.00,,,0.00,meteohub,2013-11-23 22:22:00,
2013-11-23 17:27:00,35.1,42.4,29.83,WNW,295,0.0,3.0,57,0.00,,,0.00,meteohub,2013-11-23 22:27:00,
2013-11-23 17:32:00,34.9,42.4,29.83,WNW,295,0.0,2.0,57,0.00,,,0.00,meteohub,2013-11-23 22:32:00,
2013-11-23 17:37:00,34.5,42.3,29.82,WNW,295,2.0,2.0,58,0.00,,,0.00,meteohub,2013-11-23 22:37:00,
2013-11-23 17:42:00,34.5,43.3,29.82,WNW,294,1.0,2.0,58,0.00,,,0.00,meteohub,2013-11-23 22:42:00,
2013-11-23 17:47:00,34.5,44.4,29.82,NW,318,0.0,5.0,57,0.00,,,0.00,meteohub,2013-11-23 22:47:00,
2013-11-23 17:52:00,34.5,44.6,29.82,NW,309,0.0,5.0,57,0.00,,,0.00,meteohub,2013-11-23 22:52:00,
2013-11-23 17:57:00,34.5,44.6,29.82,NW,304,3.0,5.0,57,0.00,,,0.00,meteohub,2013-11-23 22:57:00,
2013-11-23 18:02:00,34.5,44.6,29.82,WNW,303,0.0,5.0,57,0.00,,,0.00,meteohub,2013-11-23 23:02:00,
2013-11-23 18:07:00,34.7,44.6,29.82,NW,305,0.0,4.0,56,0.00,,,0.00,meteohub,2013-11-23 23:07:00,
2013-11-23 18:09:00,34.7,44.6,29.82,NW,317,1.0,4.0,56,0.00,,,0.00,meteohub,2013-11-23 23:09:00,
2013-11-23 18:14:00,34.9,44.6,29.82,WNW,295,5.0,7.0,56,0.00,,,0.00,meteohub,2013-11-23 23:14:00,
2013-11-23 18:19:00,34.9,43.9,29.82,NNW,336,1.0,7.0,55,0.00,,,0.00,meteohub,2013-11-23 23:19:00,
2013-11-23 18:24:00,35.1,44.8,29.83,NNW,342,5.0,8.0,55,0.00,,,0.00,meteohub,2013-11-23 23:24:00,
2013-11-23 18:29:00,35.2,45.0,29.82,NW,319,0.0,11.0,56,0.00,,,0.00,meteohub,2013-11-23 23:29:00,
2013-11-23 18:34:00,35.4,45.0,29.82,NNW,340,2.0,11.0,56,0.00,,,0.00,meteohub,2013-11-23 23:34:00,
2013-11-23 18:39:00,35.8,44.2,29.82,NNW,338,0.0,11.0,57,0.00,,,0.00,meteohub,2013-11-23 23:39:00,
2013-11-23 18:44:00,35.8,44.1,29.82,NW,315,1.0,9.0,57,0.00,,,0.00,meteohub,2013-11-23 23:44:00,
2013-11-23 18:49:00,35.8,44.1,29.82,NW,304,1.0,9.0,57,0.00,,,0.00,meteohub,2013-11-23 23:49:00,
2013-11-23 18:54:00,35.8,44.1,29.81,NW,307,2.0,9.0,57,0.00,,,0.00,meteohub,2013-11-23 23:54:00,
2013-11-23 18:59:00,35.6,44.1,29.81,West,267,1.0,7.0,58,0.00,,,0.00,meteohub,2013-11-23 23:59:00,
2013-11-23 19:04:00,35.6,44.1,29.81,North,355,4.0,7.0,58,0.00,,,0.00,meteohub,2013-11-24 00:04:00,
2013-11-23 19:09:00,35.8,44.1,29.81,NNW,343,1.0,10.0,59,0.00,,,0.00,meteohub,2013-11-24 00:09:00,
2013-11-23 19:14:00,35.8,44.1,29.81,WNW,290,7.0,10.0,59,0.00,,,0.00,meteohub,2013-11-24 00:14:00,
2013-11-23 19:19:00,36.0,44.1,29.81,NW,319,4.0,10.0,59,0.00,,,0.00,meteohub,2013-11-24 00:19:00,
2013-11-23 19:24:00,35.8,44.2,29.82,NW,319,0.0,11.0,59,0.00,,,0.00,meteohub,2013-11-24 00:24:00,
2013-11-23 19:29:00,35.8,44.2,29.82,WNW,290,5.0,11.0,59,0.00,,,0.00,meteohub,2013-11-24 00:29:00,
2013-11-23 19:35:00,36.0,44.2,29.82,NW,312,3.0,11.0,59,0.00,,,0.00,meteohub,2013-11-24 00:35:00,
2013-11-23 19:40:00,34.3,44.2,29.84,NW,315,7.0,11.0,75,0.00,,,0.00,meteohub,2013-11-24 00:40:00,
2013-11-23 19:45:00,32.7,44.2,29.83,West,281,1.0,19.0,82,0.00,,,0.00,meteohub,2013-11-24 00:45:00,
2013-11-23 19:50:00,31.8,44.2,29.83,NNW,332,1.0,19.0,85,0.00,,,0.00,meteohub,2013-11-24 00:50:00,
2013-11-23 19:55:00,31.3,44.1,29.82,NW,311,6.0,19.0,87,0.00,,,0.00,meteohub,2013-11-24 00:55:00,
2013-11-23 20:00:00,30.9,44.1,29.82,North,355,4.0,6.0,87,0.00,,,0.00,meteohub,2013-11-24 01:00:00,
2013-11-23 20:05:00,30.7,44.1,29.82,NNW,337,1.0,7.0,87,0.00,,,0.00,meteohub,2013-11-24 01:05:00,
2013-11-23 20:10:00,30.6,44.1,29.82,NNW,327,2.0,7.0,87,0.00,,,0.00,meteohub,2013-11-24 01:10:00,
2013-11-23 20:15:00,30.6,44.1,29.82,WNW,303,2.0,7.0,86,0.00,,,0.00,meteohub,2013-11-24 01:15:00,
2013-11-23 20:20:00,30.7,44.2,29.82,NW,315,0.0,7.0,86,0.00,,,0.00,meteohub,2013-11-24 01:20:00,
2013-11-23 20:25:00,30.7,44.2,29.82,WNW,302,1.0,7.0,85,0.00,,,0.00,meteohub,2013-11-24 01:25:00,
2013-11-23 20:30:00,30.7,44.2,29.82,NW,311,2.0,7.0,85,0.00,,,0.00,meteohub,2013-11-24 01:30:00,
2013-11-23 20:35:00,30.7,44.2,29.81,NNW,327,5.0,6.0,85,0.00,,,0.00,meteohub,2013-11-24 01:35:00,
2013-11-23 20:40:00,30.7,44.2,29.82,NW,311,2.0,6.0,84,0.00,,,0.00,meteohub,2013-11-24 01:40:00,
2013-11-23 20:45:00,30.9,44.1,29.82,West,281,6.0,7.0,84,0.00,,,0.00,meteohub,2013-11-24 01:45:00,
2013-11-23 20:50:00,30.9,44.1,29.83,WNW,298,11.0,11.0,82,0.00,,,0.00,meteohub,2013-11-24 01:50:00,
2013-11-23 20:55:00,30.9,43.2,29.83,NNW,332,5.0,19.0,79,0.00,,,0.00,meteohub,2013-11-24 01:55:00,
2013-11-23 21:00:00,30.6,43.2,29.83,WNW,296,5.0,19.0,80,0.00,,,0.00,meteohub,2013-11-24 02:00:00,
2013-11-23 21:05:00,30.0,43.2,29.84,NNW,338,5.0,16.0,80,0.00,,,0.00,meteohub,2013-11-24 02:05:00,
2013-11-23 21:10:00,29.8,43.2,29.84,NNW,334,6.0,16.0,81,0.00,,,0.00,meteohub,2013-11-24 02:10:00,
2013-11-23 21:16:00,29.5,43.2,29.84,WNW,300,0.0,16.0,83,0.00,,,0.00,meteohub,2013-11-24 02:16:00,
2013-11-23 21:21:00,29.3,43.2,29.83,NW,322,2.0,15.0,83,0.00,,,0.00,meteohub,2013-11-24 02:21:00,
2013-11-23 21:26:00,29.1,43.2,29.83,NNW,330,2.0,11.0,83,0.00,,,0.00,meteohub,2013-11-24 02:26:00,
2013-11-23 21:31:00,29.1,43.2,29.83,NW,319,0.0,8.0,82,0.00,,,0.00,meteohub,2013-11-24 02:31:00,
2013-11-23 21:36:00,29.1,43.0,29.83,NW,325,3.0,6.0,82,0.00,,,0.00,meteohub,2013-11-24 02:36:00,
2013-11-23 21:41:00,29.1,43.0,29.83,North,355,2.0,8.0,82,0.00,,,0.00,meteohub,2013-11-24 02:41:00,
2013-11-23 21:46:00,29.5,43.9,29.83,NNW,338,4.0,8.0,81,0.00,,,0.00,meteohub,2013-11-24 02:46:00,
2013-11-23 21:51:00,29.7,44.1,29.82,NNW,342,5.0,8.0,80,0.00,,,0.00,meteohub,2013-11-24 02:51:00,
2013-11-23 21:56:00,29.7,44.1,29.83,NNW,332,4.0,7.0,79,0.00,,,0.00,meteohub,2013-11-24 02:56:00,
2013-11-23 22:01:00,29.7,44.1,29.83,NW,313,1.0,7.0,77,0.00,,,0.00,meteohub,2013-11-24 03:01:00,
2013-11-23 22:06:00,29.7,44.1,29.83,West,281,6.0,8.0,76,0.00,,,0.00,meteohub,2013-11-24 03:06:00,
2013-11-23 22:11:00,29.7,44.1,29.83,North,349,8.0,8.0,74,0.00,,,0.00,meteohub,2013-11-24 03:11:00,
2013-11-23 22:16:00,29.8,43.0,29.83,NW,305,5.0,8.0,72,0.00,,,0.00,meteohub,2013-11-24 03:16:00,
2013-11-23 22:21:00,29.8,43.9,29.83,NNW,338,2.0,9.0,70,0.00,,,0.00,meteohub,2013-11-24 03:21:00,
2013-11-23 22:26:00,29.8,44.1,29.83,NNW,342,5.0,12.0,69,0.00,,,0.00,meteohub,2013-11-24 03:26:00,
2013-11-23 22:31:00,29.8,43.2,29.83,NNW,346,2.0,12.0,70,0.00,,,0.00,meteohub,2013-11-24 03:31:00,
2013-11-23 22:36:00,29.8,43.2,29.83,West,279,7.0,12.0,70,0.00,,,0.00,meteohub,2013-11-24 03:36:00,
2013-11-23 22:41:00,29.1,43.2,29.83,WNW,289,3.0,12.0,77,0.00,,,0.00,meteohub,2013-11-24 03:41:00,
2013-11-23 22:46:00,28.8,43.2,29.83,WNW,298,1.0,12.0,77,0.00,,,0.00,meteohub,2013-11-24 03:46:00,
2013-11-23 22:51:00,28.8,43.0,29.83,WNW,289,1.0,12.0,76,0.00,,,0.00,meteohub,2013-11-24 03:51:00,
2013-11-23 22:56:00,28.6,43.0,29.83,NW,317,2.0,7.0,76,0.00,,,0.00,meteohub,2013-11-24 03:56:00,
2013-11-23 23:01:00,28.8,43.2,29.83,WNW,293,4.0,7.0,72,0.00,,,0.00,meteohub,2013-11-24 04:01:00,
2013-11-23 23:06:00,29.1,43.2,29.82,NW,310,4.0,7.0,70,0.00,,,0.00,meteohub,2013-11-24 04:06:00,
2013-11-23 23:11:00,29.1,43.2,29.82,NW,318,5.0,8.0,70,0.00,,,0.00,meteohub,2013-11-24 04:11:00,
2013-11-23 23:16:00,29.1,43.2,29.82,WNW,296,4.0,8.0,70,0.00,,,0.00,meteohub,2013-11-24 04:16:00,
2013-11-23 23:21:00,28.9,43.2,29.83,NNW,334,1.0,8.0,72,0.00,,,0.00,meteohub,2013-11-24 04:21:00,
2013-11-23 23:26:00,28.9,43.2,29.83,NNW,345,1.0,7.0,72,0.00,,,0.00,meteohub,2013-11-24 04:26:00,
2013-11-23 23:31:00,28.9,43.2,29.83,NW,325,2.0,6.0,72,0.00,,,0.00,meteohub,2013-11-24 04:31:00,
2013-11-23 23:36:00,28.9,43.2,29.83,NW,309,3.0,8.0,72,0.00,,,0.00,meteohub,2013-11-24 04:36:00,
2013-11-23 23:41:00,28.8,43.2,29.82,NW,325,4.0,8.0,71,0.00,,,0.00,meteohub,2013-11-24 04:41:00,
2013-11-23 23:46:00,28.6,43.2,29.82,West,276,1.0,8.0,70,0.00,,,0.00,meteohub,2013-11-24 04:46:00,
2013-11-23 23:51:00,28.4,43.2,29.82,North,349,6.0,9.0,70,0.00,,,0.00,meteohub,2013-11-24 04:51:00,
2013-11-23 23:56:00,28.2,43.2,29.82,NW,311,5.0,9.0,68,0.00,,,0.00,meteohub,2013-11-24 04:56:00,